Terminal Aerodrome Forecast
Issued by NWS

Home | Current Version | Previous Version | Text Only | Print | Product List | Glossary On
Versions: 1 2 3 4 5 6 7 8 9 10 11 12 13 14 15 16 17 18 19 20 21 22 23 24 25 26 27 28 29 30 31 32 33 34 35 36 37 38 39 40 41 42 43 44 45 46 47 48 49 50
000
FTUS45 KVEF 022320
TAFLAS
TAF
KLAS 022320Z 0300/0324 05008KT P6SM SCT120
     FM030100 20010KT P6SM FEW120
     FM031200 VRB06KT P6SM SKC
     FM031700 16008KT P6SM FEW120
     FM032200 20010G18KT P6SM SCT120=

USA.gov is the U.S. government's official web portal to all federal, state and local government web resources and services.